FW3936 Weather Reports


Display with metric or nautical units.
time (UTC)temp
F
wind
direction
speed
MPH
gust
MPH
rain 1hr
in
rain 24hr
in
rain mn
in
humidity
%
barometer
mb
20260507141510 57 67 2.0 11.0 0.00 0.00 0.00 75 1017.9
20260507140009 57 5 4.0 14.0 0.00 0.00 0.00 75 1017.4
20260507134508 57 320 3.0 9.0 0.00 0.00 0.00 76 1017.7
20260507133004 57 327 1.0 7.0 0.00 0.00 0.00 76 1018.0
20260507131600 58 303 2.0 10.0 0.00 0.00 0.00 77 1017.4
20260507130105 58 320 2.0 11.0 0.00 0.00 0.00 77 1017.4
20260507124559 58 286 2.0 10.0 0.00 0.00 0.00 77 1017.3
20260507123051 58 337 3.0 12.0 0.00 0.00 0.00 76 1017.1
20260507121555 58 9 1.0 8.0 0.00 0.00 0.00 76 1017.1
20260507120145 58 298 4.0 9.0 0.00 0.00 0.00 76 1016.4
20260507114544 59 322 2.0 8.0 0.00 0.00 0.00 76 1016.3
20260507113046 59 360 3.0 12.0 0.00 0.00 0.00 76 1016.1
20260507111539 59 329 2.0 11.0 0.00 0.00 0.00 75 1015.8
20260507110045 59 360 2.0 9.0 0.00 0.00 0.00 75 1015.4
20260507104545 59 315 2.0 5.0 0.00 0.00 0.00 75 1015.6
20260507103050 60 360 3.0 9.0 0.00 0.00 0.00 75 1015.9
20260507101538 60 355 1.0 7.0 0.00 0.00 0.00 75 1015.5
20260507100032 60 5 1.0 6.0 0.00 0.00 0.00 75 1015.3
20260507094533 60 360 2.0 7.0 0.00 0.00 0.00 75 1015.4
20260507093030 60 355 2.0 6.0 0.00 0.00 0.00 75 1015.1
20260507091538 60 294 2.0 10.0 0.00 0.00 0.00 75 1015.4
20260507090033 60 336 1.0 6.0 0.00 0.00 0.00 75 1015.3
20260507084540 60 322 0.0 4.0 0.00 0.00 0.00 75 1015.4
20260507083027 60 16 2.0 5.0 0.00 0.00 0.00 75 1015.5
20260507081528 60 335 0.0 7.0 0.00 0.00 0.00 75 1015.6
20260507080026 60 355 0.0 7.0 0.00 0.00 0.00 75 1015.3
20260507074526 60 348 0.0 7.0 0.00 0.00 0.00 75 1015.4
20260507073025 60 355 1.0 4.0 0.00 0.00 0.00 75 1015.5
20260507071526 60 32 1.0 4.0 0.00 0.00 0.00 75 1015.6
20260507070023 60 105 1.0 7.0 0.00 0.00 0.00 75 1015.4
20260507064522 60 5 1.0 5.0 0.00 0.00 0.00 75 1015.4
20260507063020 61 17 1.0 8.0 0.00 0.00 0.00 75 1015.6
20260507061519 61 332 1.0 7.0 0.00 0.00 0.00 75 1015.3
20260507060020 61 96 1.0 6.0 0.00 0.00 0.00 75 1015.3
20260507054514 61 13 2.0 6.0 0.00 0.00 0.00 75 1014.8
20260507053012 61 318 2.0 10.0 0.00 0.00 0.00 75 1014.5
20260507051511 61 355 2.0 7.0 0.00 0.00 0.00 75 1014.5
20260507050021 61 297 1.0 8.0 0.00 0.00 0.00 75 1014.8
20260507044506 61 346 1.0 11.0 0.00 0.00 0.00 75 1015.1
20260507043005 61 46 2.0 15.0 0.00 0.00 0.00 75 1014.5
20260507041507 61 9 3.0 9.0 0.00 0.00 0.00 75 1014.8
20260507040000 61 90 4.0 10.0 0.00 0.00 0.00 75 1014.1
20260507034609 62 32 3.0 11.0 0.00 0.00 0.00 75 1013.9
20260507033058 62 5 3.0 10.0 0.00 0.00 0.00 75 1013.9
20260507031600 62 334 4.0 11.0 0.00 0.00 0.00 75 1013.8
20260507030101 62 360 2.0 9.0 0.00 0.00 0.00 75 1014.0
20260507024556 62 318 3.0 9.0 0.00 0.00 0.00 75 1014.0
20260507023054 62 321 1.0 9.0 0.00 0.00 0.00 75 1013.8
20260507021611 62 280 2.0 9.0 0.00 0.00 0.00 75 1013.7
20260507020107 62 349 2.0 11.0 0.00 0.00 0.00 75 1013.0
20260507014615 62 333 1.0 7.0 0.00 0.00 0.00 74 1013.1
20260507013049 63 336 2.0 8.0 0.00 0.00 0.00 74 1013.1
20260507011553 63 324 2.0 7.0 0.00 0.00 0.00 74 1012.7
20260507010044 64 333 1.0 8.0 0.00 0.00 0.00 73 1012.4
20260507004537 64 350 2.0 10.0 0.00 0.00 0.00 73 1012.2
20260507003035 65 338 4.0 11.0 0.00 0.00 0.00 73 1012.5
20260507001552 66 321 1.0 10.0 0.00 0.00 0.00 72 1012.1
20260507000035 66 39 1.0 9.0 0.00 0.00 0.00 72 1011.9
20260506234527 66 325 3.0 12.0 0.00 0.00 0.00 72 1011.8
20260506233024 68 5 3.0 12.0 0.00 0.00 0.00 70 1011.4
20260506231521 68 17 2.0 11.0 0.00 0.00 0.00 71 1011.5
20260506230019 70 295 3.0 11.0 0.00 0.00 0.00 68 1011.3
20260506224514 72 360 4.0 9.0 0.00 0.00 0.00 67 1011.2
20260506223010 73 284 2.0 12.0 0.00 0.00 0.00 67 1011.0
20260506221510 75 15 2.0 9.0 0.00 0.00 0.00 67 1010.7
20260506220010 75 49 3.0 10.0 0.00 0.00 0.00 67 1010.6
20260506214509 74 348 2.0 9.0 0.00 0.00 0.00 68 1010.7
20260506213007 76 355 2.0 12.0 0.00 0.00 0.00 66 1010.7
20260506211508 78 100 3.0 10.0 0.00 0.00 0.00 65 1010.5
20260506210010 79 360 2.0 10.0 0.00 0.00 0.00 66 1010.6
20260506204509 76 360 2.0 7.0 0.00 0.00 0.00 69 1010.5
20260506203002 79 327 3.0 9.0 0.00 0.00 0.00 65 1010.8
20260506201501 82 102 0.0 3.0 0.00 0.00 0.00 66 1010.5
20260506200101 81 102 1.0 3.0 0.00 0.00 0.00 68 1010.7
20260506200004 81 102 0.0 3.0 0.00 0.00 0.00 68 1010.8
20260506194557 82 102 0.0 3.0 0.00 0.00 0.00 66 1010.6
20260506193058 82 103 2.0 6.0 0.00 0.00 0.00 67 1010.5
20260506191601 83 101 4.0 8.0 0.00 0.00 0.00 66 1010.7
20260506190055 84 96 4.0 8.0 0.00 0.00 0.00 64 1010.8
20260506184556 83 93 1.0 6.0 0.00 0.00 0.00 68 1011.0
20260506183100 81 94 1.0 8.0 0.00 0.00 0.00 68 1011.2
20260506181600 82 96 2.0 9.0 0.00 0.00 0.00 67 1011.2
20260506180042 79 94 2.0 7.0 0.00 0.00 0.00 72 1011.3
20260506174539 76 105 1.0 5.0 0.00 0.00 0.00 74 1011.4
20260506173102 75 105 1.0 7.0 0.00 0.00 0.00 73 1011.7
20260506171541 77 92 3.0 10.0 0.00 0.00 0.00 74 1011.8
20260506170047 77 88 2.0 8.0 0.00 0.00 0.00 73 1011.8
20260506164529 77 94 2.0 7.0 0.00 0.00 0.00 73 1011.8
20260506163029 77 120 3.0 7.0 0.00 0.00 0.00 74 1011.8
20260506161524 77 121 1.0 4.0 0.00 0.00 0.00 74 1011.7
20260506160019 76 121 1.0 4.0 0.00 0.00 0.00 73 1011.6
20260506154515 75 121 1.0 4.0 0.00 0.00 0.00 73 1011.6
20260506153020 74 121 1.0 5.0 0.00 0.00 0.00 71 1011.3
20260506151509 74 121 1.0 4.0 0.00 0.00 0.00 70 1011.1
20260506150014 74 121 1.0 4.0 0.00 0.00 0.00 68 1011.0
20260506144502 73 121 0.0 2.0 0.00 0.00 0.00 67 1010.9
20260506143101 73 121 0.0 2.0 0.00 0.00 0.00 67 1010.9